Regional Weather Roundup
Issued by NWS Little Rock, AR

Home | Current Version | Previous Version | Graphics & Text | Print | Product List | Glossary On
Versions: 1 2 3 4 5 6 7 8 9 10 11 12 13 14 15 16 17 18 19 20 21 22 23 24 25 26 27 28 29 30 31 32 33 34 35 36 37 38 39 40 41 42 43 44 45 46 47
000
ASUS44 KLZK 011605
RWRLZK

WEATHER ROUNDUP FOR ARKANSAS
NATIONAL WEATHER SERVICE LITTLE ROCK AR
1100 AM CDT TUE SEP 01 2015

NOTE: "FAIR" INDICATES FEW OR NO CLOUDS BELOW 12,000 FEET WITH NO
SIGNIFICANT WEATHER AND/OR OBSTRUCTIONS TO VISIBILITY.

ARZ001-003-010-029-011700-
NORTHWEST ARKANSAS

CITY           SKY/WX    TMP DP  RH WIND       PRES   REMARKS
FAYETTEVILLE   SUNNY     81  69  67 S9        30.12R
FORT SMITH     SUNNY     83  68  60 NE3       30.09R HX  86
BENTONVILLE    SUNNY     82  64  54 S7        30.13R
ROGERS         SUNNY     83  67  58 SW8       30.13R HX  85
SILOAM SPGS    SUNNY     82  64  54 S10       30.10R
HIGHFILL       SUNNY     82  69  64 S9        30.12R HX  85
$$

ARZ004-005-016-011700-
NORTH CENTRAL ARKANSAS

CITY           SKY/WX    TMP DP  RH WIND       PRES   REMARKS
BATESVILLE     MOSUNNY   82  72  69 CALM      30.10S HX  87
FLIPPIN        SUNNY     82  68  61 CALM      30.09S HX  85
MTN HOME       SUNNY     82  70  66 CALM      30.11S HX  86
$$

ARZ040-041-011700-
WEST CENTRAL ARKANSAS

CITY           SKY/WX    TMP DP  RH WIND       PRES   REMARKS
MENA           SUNNY     86  70  58 CALM      30.12S HX  90
MOUNT IDA      SUNNY     86  69  56 CALM      30.10R HX  90
$$

ARZ009-017-025-026-028-011700-
NORTHEAST ARKANSAS

CITY           SKY/WX    TMP DP  RH WIND       PRES   REMARKS
JONESBORO      SUNNY     83  70  64 E7        30.11S HX  87
NEWPORT        SUNNY     86  72  62 VRB7      30.11S HX  92
WALNUT RIDGE   SUNNY     84  72  65 SE5       30.11S HX  89
BLYTHEVILLE    SUNNY     85  70  60 S7        30.12S HX  89
$$

ARZ022-023-033-042-044-011700-
CENTRAL ARKANSAS

CITY           SKY/WX    TMP DP  RH WIND       PRES   REMARKS
LITTLE ROCK    CLOUDY    85  70  60 CALM      30.10R HX  89
N LITTLE ROCK  CLOUDY    83  73  73 CALM      30.10R HX  88
JACKSONVILLE   MOSUNNY   82  70  66 VRB1      30.10R HX  86
SEARCY         MOSUNNY   85  72  65 CALM      30.11S HX  91
HOT SPRINGS    MOSUNNY   83  70  64 S3        30.11R HX  87
RUSSELLVILLE   SUNNY     84  70  62 S5        30.09R HX  88
$$

ARZ036-011700-
EAST ARKANSAS

CITY           SKY/WX    TMP DP  RH WIND       PRES   REMARKS
WEST MEMPHIS   SUNNY     85  71  63 VRB6      30.10R HX  90
$$

ARZ050-053-066-070-073-011700-
SOUTHWEST ARKANSAS

CITY           SKY/WX    TMP DP  RH WIND       PRES   REMARKS
ARKADELPHIA    FAIR      80  72  76 CALM      30.11R
CAMDEN         CLOUDY    82  68  61 CALM      30.11R HX  85
TEXARKANA      CLOUDY    79  70  74 CALM      30.10S
EL DORADO      CLOUDY    84  68  58 N6        30.11S HX  87
DE QUEEN       SUNNY     83  71  67 CALM      30.08R HX  87
$$

ARZ056-057-069-011700-
SOUTHEAST ARKANSAS

CITY           SKY/WX    TMP DP  RH WIND       PRES   REMARKS
PINE BLUFF     PTSUNNY   82  71  69 SE3       30.11R HX  86
STUTTGART      CLOUDY    84  70  61 CALM      30.10R HX  88
MONTICELLO     PTSUNNY   87  69  54 VRB5      30.11R HX  91

$$





USA.gov is the U.S. government's official web portal to all federal, state and local government web resources and services.